owner,sensor,date,latitude,longitude,vertical_datum,mass_concentration_of_oxygen_in_sea_water,qcFlag 
DISL,ioos:station:DISL:PPTA:1,2014-02-01T00:00:00Z,30.2791,-87.5561,1.112,9.12,1111122 
DISL,ioos:station:DISL:PPTA:1,2014-02-01T00:30:00Z,30.2791,-87.5561,1.142,9.02,1111122 
DISL,ioos:station:DISL:PPTA:1,2014-02-01T01:00:00Z,30.2791,-87.5561,1.171,9.06,1111122 
DISL,ioos:station:DISL:PPTA:1,2014-02-01T01:30:00Z,30.2791,-87.5561,1.177,9.08,1111122 
DISL,ioos:station:DISL:PPTA:1,2014-02-01T02:00:00Z,30.2791,-87.5561,1.185,9.05,1111122 
DISL,ioos:station:DISL:PPTA:1,2014-02-01T02:30:00Z,30.2791,-87.5561,1.212,8.98,1111122 
DISL,ioos:station:DISL:PPTA:1,2014-02-01T03:00:00Z,30.2791,-87.5561,1.212,9.02,1111122 
DISL,ioos:station:DISL:PPTA:1,2014-02-01T03:30:00Z,30.2791,-87.5561,1.214,8.99,1111122 
DISL,ioos:station:DISL:PPTA:1,2014-02-01T04:00:00Z,30.2791,-87.5561,1.221,8.76,1111122 
DISL,ioos:station:DISL:PPTA:1,2014-02-01T04:30:00Z,30.2791,-87.5561,1.223,8.88,1111122 
DISL,ioos:station:DISL:PPTA:1,2014-02-01T05:00:00Z,30.2791,-87.5561,1.222,8.86,1111122 
DISL,ioos:station:DISL:PPTA:1,2014-02-01T05:30:00Z,30.2791,-87.5561,1.217,8.91,1111122 
DISL,ioos:station:DISL:PPTA:1,2014-02-01T06:00:00Z,30.2791,-87.5561,1.235,8.84,1111122 
DISL,ioos:station:DISL:PPTA:1,2014-02-01T06:30:00Z,30.2791,-87.5561,1.228,8.81,1111122 
DISL,ioos:station:DISL:PPTA:1,2014-02-01T07:00:00Z,30.2791,-87.5561,1.2,8.88,1111122 
DISL,ioos:station:DISL:PPTA:1,2014-02-01T07:30:00Z,30.2791,-87.5561,1.186,8.82,1111122 
DISL,ioos:station:DISL:PPTA:1,2014-02-01T08:00:00Z,30.2791,-87.5561,1.158,8.78,1111122 
DISL,ioos:station:DISL:PPTA:1,2014-02-01T08:30:00Z,30.2791,-87.5561,1.121,8.8,1111122 
DISL,ioos:station:DISL:PPTA:1,2014-02-01T09:00:00Z,30.2791,-87.5561,1.115,9.24,1111122 
DISL,ioos:station:DISL:PPTA:1,2014-02-01T09:30:00Z,30.2791,-87.5561,1.1,9.04,1111122 
DISL,ioos:station:DISL:PPTA:1,2014-02-01T10:00:00Z,30.2791,-87.5561,1.089,8.97,1111122 
DISL,ioos:station:DISL:PPTA:1,2014-02-01T10:30:00Z,30.2791,-87.5561,1.09,9.02,1111122 
DISL,ioos:station:DISL:PPTA:1,2014-02-01T11:00:00Z,30.2791,-87.5561,1.088,9.34,1111122 
DISL,ioos:station:DISL:PPTA:1,2014-02-01T11:30:00Z,30.2791,-87.5561,1.077,9.41,1111122 
DISL,ioos:station:DISL:PPTA:1,2014-02-01T12:00:00Z,30.2791,-87.5561,1.065,9.47,1111122 
DISL,ioos:station:DISL:PPTA:1,2014-02-01T12:30:00Z,30.2791,-87.5561,1.055,9.57,1111122 
DISL,ioos:station:DISL:PPTA:1,2014-02-01T13:00:00Z,30.2791,-87.5561,1.053,9.39,1111122 
DISL,ioos:station:DISL:PPTA:1,2014-02-01T13:30:00Z,30.2791,-87.5561,1.049,9.35,1111122 
DISL,ioos:station:DISL:PPTA:1,2014-02-01T14:00:00Z,30.2791,-87.5561,1.045,9.39,1111122 
DISL,ioos:station:DISL:PPTA:1,2014-02-01T14:30:00Z,30.2791,-87.5561,1.043,9.59,1111122 
DISL,ioos:station:DISL:PPTA:1,2014-02-01T15:00:00Z,30.2791,-87.5561,1.044,9.95,1111122 
DISL,ioos:station:DISL:PPTA:1,2014-02-01T15:30:00Z,30.2791,-87.5561,1.024,9.88,1111122 
DISL,ioos:station:DISL:PPTA:1,2014-02-01T16:00:00Z,30.2791,-87.5561,1.037,10.04,1111122 
DISL,ioos:station:DISL:PPTA:1,2014-02-01T16:30:00Z,30.2791,-87.5561,1.023,10.19,1111122 
DISL,ioos:station:DISL:PPTA:1,2014-02-01T17:00:00Z,30.2791,-87.5561,1.05,10.29,1111122 
DISL,ioos:station:DISL:PPTA:1,2014-02-01T17:30:00Z,30.2791,-87.5561,1.067,10.42,1111122 
DISL,ioos:station:DISL:PPTA:1,2014-02-01T18:00:00Z,30.2791,-87.5561,1.048,10.37,1111122 
DISL,ioos:station:DISL:PPTA:1,2014-02-01T18:30:00Z,30.2791,-87.5561,1.06,10.41,1111122 
DISL,ioos:station:DISL:PPTA:1,2014-02-01T19:00:00Z,30.2791,-87.5561,1.048,10.34,1111122 
DISL,ioos:station:DISL:PPTA:1,2014-02-01T19:30:00Z,30.2791,-87.5561,1.048,10.31,1111122 
DISL,ioos:station:DISL:PPTA:1,2014-02-01T20:00:00Z,30.2791,-87.5561,1.048,10.19,1111122 
DISL,ioos:station:DISL:PPTA:1,2014-02-01T20:30:00Z,30.2791,-87.5561,1.038,10.54,1111122 
DISL,ioos:station:DISL:PPTA:1,2014-02-01T21:00:00Z,30.2791,-87.5561,1.039,10.33,1111122 
DISL,ioos:station:DISL:PPTA:1,2014-02-01T21:30:00Z,30.2791,-87.5561,1.034,10.23,1111122 
DISL,ioos:station:DISL:PPTA:1,2014-02-01T22:00:00Z,30.2791,-87.5561,1.043,10.22,1111122 
DISL,ioos:station:DISL:PPTA:1,2014-02-01T22:30:00Z,30.2791,-87.5561,1.054,10.17,1111122 
DISL,ioos:station:DISL:PPTA:1,2014-02-01T23:00:00Z,30.2791,-87.5561,1.075,9.75,1111122 
DISL,ioos:station:DISL:PPTA:1,2014-02-01T23:30:00Z,30.2791,-87.5561,1.083,9.76,1111122 
DISL,ioos:station:DISL:PPTA:1,2014-02-02T00:00:00Z,30.2791,-87.5561,1.105,9.24,1111122 
DISL,ioos:station:DISL:PPTA:1,2014-02-02T00:30:00Z,30.2791,-87.5561,1.128,9.16,1111122 
DISL,ioos:station:DISL:PPTA:1,2014-02-02T01:00:00Z,30.2791,-87.5561,1.162,9.04,1111122 
DISL,ioos:station:DISL:PPTA:1,2014-02-02T01:30:00Z,30.2791,-87.5561,1.171,9.08,1111122 
DISL,ioos:station:DISL:PPTA:1,2014-02-02T02:00:00Z,30.2791,-87.5561,1.194,9.12,1111122 
DISL,ioos:station:DISL:PPTA:1,2014-02-02T02:30:00Z,30.2791,-87.5561,1.198,8.96,1111122 
DISL,ioos:station:DISL:PPTA:1,2014-02-02T03:00:00Z,30.2791,-87.5561,1.208,8.99,1111122 
DISL,ioos:station:DISL:PPTA:1,2014-02-02T03:30:00Z,30.2791,-87.5561,1.207,8.91,1111122 
DISL,ioos:station:DISL:PPTA:1,2014-02-02T04:00:00Z,30.2791,-87.5561,1.205,8.86,1111122 
DISL,ioos:station:DISL:PPTA:1,2014-02-02T04:30:00Z,30.2791,-87.5561,1.206,8.87,1111122 
DISL,ioos:station:DISL:PPTA:1,2014-02-02T05:00:00Z,30.2791,-87.5561,1.235,8.95,1111122 
DISL,ioos:station:DISL:PPTA:1,2014-02-02T05:30:00Z,30.2791,-87.5561,1.236,8.96,1111122 
DISL,ioos:station:DISL:PPTA:1,2014-02-02T06:00:00Z,30.2791,-87.5561,1.24,8.95,1111122 
DISL,ioos:station:DISL:PPTA:1,2014-02-02T06:30:00Z,30.2791,-87.5561,1.252,8.89,1111122 
DISL,ioos:station:DISL:PPTA:1,2014-02-02T07:00:00Z,30.2791,-87.5561,1.251,8.89,1111122 
DISL,ioos:station:DISL:PPTA:1,2014-02-02T07:30:00Z,30.2791,-87.5561,1.238,8.93,1111122 
DISL,ioos:station:DISL:PPTA:1,2014-02-02T08:00:00Z,30.2791,-87.5561,1.216,8.88,1111122 
DISL,ioos:station:DISL:PPTA:1,2014-02-02T08:30:00Z,30.2791,-87.5561,1.19,8.87,1111122 
DISL,ioos:station:DISL:PPTA:1,2014-02-02T09:00:00Z,30.2791,-87.5561,1.178,8.95,1111122 
DISL,ioos:station:DISL:PPTA:1,2014-02-02T09:30:00Z,30.2791,-87.5561,1.168,9.18,1111122 
DISL,ioos:station:DISL:PPTA:1,2014-02-02T10:00:00Z,30.2791,-87.5561,1.161,9.25,1111122 
DISL,ioos:station:DISL:PPTA:1,2014-02-02T10:30:00Z,30.2791,-87.5561,1.163,9.1,1111122 
DISL,ioos:station:DISL:PPTA:1,2014-02-02T11:00:00Z,30.2791,-87.5561,1.157,9.28,1111122 
DISL,ioos:station:DISL:PPTA:1,2014-02-02T11:30:00Z,30.2791,-87.5561,1.155,9.38,1111122 
DISL,ioos:station:DISL:PPTA:1,2014-02-02T12:00:00Z,30.2791,-87.5561,1.155,9.42,1111122 
DISL,ioos:station:DISL:PPTA:1,2014-02-02T12:30:00Z,30.2791,-87.5561,1.144,9.46,1111122 
DISL,ioos:station:DISL:PPTA:1,2014-02-02T13:00:00Z,30.2791,-87.5561,1.142,9.56,1111122 
DISL,ioos:station:DISL:PPTA:1,2014-02-02T13:30:00Z,30.2791,-87.5561,1.15,9.59,1111122 
DISL,ioos:station:DISL:PPTA:1,2014-02-02T14:00:00Z,30.2791,-87.5561,1.147,9.68,1111122 
DISL,ioos:station:DISL:PPTA:1,2014-02-02T14:30:00Z,30.2791,-87.5561,1.151,9.67,1111122 
DISL,ioos:station:DISL:PPTA:1,2014-02-02T15:00:00Z,30.2791,-87.5561,1.142,9.72,1111122 
DISL,ioos:station:DISL:PPTA:1,2014-02-02T15:30:00Z,30.2791,-87.5561,1.141,10.03,1111122 
DISL,ioos:station:DISL:PPTA:1,2014-02-02T16:00:00Z,30.2791,-87.5561,1.123,10.15,1111122 
DISL,ioos:station:DISL:PPTA:1,2014-02-02T16:30:00Z,30.2791,-87.5561,1.118,10.18,1111122 
DISL,ioos:station:DISL:PPTA:1,2014-02-02T17:00:00Z,30.2791,-87.5561,1.14,10.02,1111122 
DISL,ioos:station:DISL:PPTA:1,2014-02-02T17:30:00Z,30.2791,-87.5561,1.14,10.24,1111122 
DISL,ioos:station:DISL:PPTA:1,2014-02-02T18:00:00Z,30.2791,-87.5561,1.133,9.99,1111122 
DISL,ioos:station:DISL:PPTA:1,2014-02-02T18:30:00Z,30.2791,-87.5561,1.151,10.14,1111122 
DISL,ioos:station:DISL:PPTA:1,2014-02-02T19:00:00Z,30.2791,-87.5561,1.139,10.53,1111122 
DISL,ioos:station:DISL:PPTA:1,2014-02-02T19:30:00Z,30.2791,-87.5561,1.138,9.99,1111122 
DISL,ioos:station:DISL:PPTA:1,2014-02-02T20:00:00Z,30.2791,-87.5561,1.138,9.99,1111122 
DISL,ioos:station:DISL:PPTA:1,2014-02-02T20:30:00Z,30.2791,-87.5561,1.141,9.9,1111122 
DISL,ioos:station:DISL:PPTA:1,2014-02-02T21:00:00Z,30.2791,-87.5561,1.145,9.79,1111122 
DISL,ioos:station:DISL:PPTA:1,2014-02-02T21:30:00Z,30.2791,-87.5561,1.123,9.7,1111122 
DISL,ioos:station:DISL:PPTA:1,2014-02-02T22:00:00Z,30.2791,-87.5561,1.124,9.34,1111122 
DISL,ioos:station:DISL:PPTA:1,2014-02-02T22:30:00Z,30.2791,-87.5561,1.119,9.22,1111122 
DISL,ioos:station:DISL:PPTA:1,2014-02-02T23:00:00Z,30.2791,-87.5561,1.116,9.3,1111122 
DISL,ioos:station:DISL:PPTA:1,2014-02-02T23:30:00Z,30.2791,-87.5561,1.145,10.22,1111122 
DISL,ioos:station:DISL:PPTA:1,2014-02-03T00:00:00Z,30.2791,-87.5561,1.149,9.36,1111122 
DISL,ioos:station:DISL:PPTA:1,2014-02-03T00:30:00Z,30.2791,-87.5561,1.17,9.27,1111122 
DISL,ioos:station:DISL:PPTA:1,2014-02-03T01:00:00Z,30.2791,-87.5561,1.185,9.01,1111122 
DISL,ioos:station:DISL:PPTA:1,2014-02-03T01:30:00Z,30.2791,-87.5561,1.206,8.92,1111122 
DISL,ioos:station:DISL:PPTA:1,2014-02-03T02:00:00Z,30.2791,-87.5561,1.222,8.95,1111122 
DISL,ioos:station:DISL:PPTA:1,2014-02-03T02:30:00Z,30.2791,-87.5561,1.231,8.91,1111122 
DISL,ioos:station:DISL:PPTA:1,2014-02-03T03:00:00Z,30.2791,-87.5561,1.241,8.85,1111122 
DISL,ioos:station:DISL:PPTA:1,2014-02-03T03:30:00Z,30.2791,-87.5561,1.24,8.86,1111122 
DISL,ioos:station:DISL:PPTA:1,2014-02-03T04:00:00Z,30.2791,-87.5561,1.242,8.7,1111122 
DISL,ioos:station:DISL:PPTA:1,2014-02-03T04:30:00Z,30.2791,-87.5561,1.226,8.73,1111122 
DISL,ioos:station:DISL:PPTA:1,2014-02-03T05:00:00Z,30.2791,-87.5561,1.237,8.73,1111122 
DISL,ioos:station:DISL:PPTA:1,2014-02-03T05:30:00Z,30.2791,-87.5561,1.227,8.8,1111122 
DISL,ioos:station:DISL:PPTA:1,2014-02-03T06:00:00Z,30.2791,-87.5561,1.239,8.7,1111122 
DISL,ioos:station:DISL:PPTA:1,2014-02-03T06:30:00Z,30.2791,-87.5561,1.253,8.65,1111122 
DISL,ioos:station:DISL:PPTA:1,2014-02-03T07:00:00Z,30.2791,-87.5561,1.258,8.71,1111122 
DISL,ioos:station:DISL:PPTA:1,2014-02-03T07:30:00Z,30.2791,-87.5561,1.254,8.75,1111122 
DISL,ioos:station:DISL:PPTA:1,2014-02-03T08:00:00Z,30.2791,-87.5561,1.265,8.68,1111122 
DISL,ioos:station:DISL:PPTA:1,2014-02-03T08:30:00Z,30.2791,-87.5561,1.245,8.82,1111122 
DISL,ioos:station:DISL:PPTA:1,2014-02-03T09:00:00Z,30.2791,-87.5561,1.224,8.7,1111122 
DISL,ioos:station:DISL:PPTA:1,2014-02-03T09:30:00Z,30.2791,-87.5561,1.208,8.71,1111122 
DISL,ioos:station:DISL:PPTA:1,2014-02-03T10:00:00Z,30.2791,-87.5561,1.193,8.91,1111122 
DISL,ioos:station:DISL:PPTA:1,2014-02-03T10:30:00Z,30.2791,-87.5561,1.198,8.98,1111122 
DISL,ioos:station:DISL:PPTA:1,2014-02-03T11:00:00Z,30.2791,-87.5561,1.189,9.08,1111122 
DISL,ioos:station:DISL:PPTA:1,2014-02-03T11:30:00Z,30.2791,-87.5561,1.188,8.91,1111122 
DISL,ioos:station:DISL:PPTA:1,2014-02-03T12:00:00Z,30.2791,-87.5561,1.176,9.02,1111122 
DISL,ioos:station:DISL:PPTA:1,2014-02-03T12:30:00Z,30.2791,-87.5561,1.173,9.01,1111122 
DISL,ioos:station:DISL:PPTA:1,2014-02-03T13:00:00Z,30.2791,-87.5561,1.179,9.0,1111122 
DISL,ioos:station:DISL:PPTA:1,2014-02-03T13:30:00Z,30.2791,-87.5561,1.182,9.01,1111122 
DISL,ioos:station:DISL:PPTA:1,2014-02-03T14:00:00Z,30.2791,-87.5561,1.198,9.24,1111122 
DISL,ioos:station:DISL:PPTA:1,2014-02-03T14:30:00Z,30.2791,-87.5561,1.191,9.5,1111122 
DISL,ioos:station:DISL:PPTA:1,2014-02-03T15:00:00Z,30.2791,-87.5561,1.177,9.5,1111122 
DISL,ioos:station:DISL:PPTA:1,2014-02-03T15:30:00Z,30.2791,-87.5561,1.173,9.1,1111122 
DISL,ioos:station:DISL:PPTA:1,2014-02-03T16:00:00Z,30.2791,-87.5561,1.147,9.24,1111122 
DISL,ioos:station:DISL:PPTA:1,2014-02-03T16:30:00Z,30.2791,-87.5561,1.15,9.67,1111122 
DISL,ioos:station:DISL:PPTA:1,2014-02-03T17:00:00Z,30.2791,-87.5561,1.166,9.56,1111122 
DISL,ioos:station:DISL:PPTA:1,2014-02-03T17:30:00Z,30.2791,-87.5561,1.149,9.78,1111122 
DISL,ioos:station:DISL:PPTA:1,2014-02-03T18:00:00Z,30.2791,-87.5561,1.153,9.73,1111122 
DISL,ioos:station:DISL:PPTA:1,2014-02-03T18:30:00Z,30.2791,-87.5561,1.145,9.39,1111122 
DISL,ioos:station:DISL:PPTA:1,2014-02-03T19:00:00Z,30.2791,-87.5561,1.154,9.75,1111122 
DISL,ioos:station:DISL:PPTA:1,2014-02-03T19:30:00Z,30.2791,-87.5561,1.148,9.28,1111122 
DISL,ioos:station:DISL:PPTA:1,2014-02-03T20:00:00Z,30.2791,-87.5561,1.132,10.18,1111122 
DISL,ioos:station:DISL:PPTA:1,2014-02-03T20:30:00Z,30.2791,-87.5561,1.126,9.84,1111122 
DISL,ioos:station:DISL:PPTA:1,2014-02-03T21:00:00Z,30.2791,-87.5561,1.11,9.73,1111122 
DISL,ioos:station:DISL:PPTA:1,2014-02-03T21:30:00Z,30.2791,-87.5561,1.097,9.77,1111122 
DISL,ioos:station:DISL:PPTA:1,2014-02-03T22:00:00Z,30.2791,-87.5561,1.109,10.05,1111122 
DISL,ioos:station:DISL:PPTA:1,2014-02-03T22:30:00Z,30.2791,-87.5561,1.084,10.05,1111122 
DISL,ioos:station:DISL:PPTA:1,2014-02-03T23:00:00Z,30.2791,-87.5561,1.086,10.11,1111122 
DISL,ioos:station:DISL:PPTA:1,2014-02-03T23:30:00Z,30.2791,-87.5561,1.08,10.03,1111122 
DISL,ioos:station:DISL:PPTA:1,2014-02-04T00:00:00Z,30.2791,-87.5561,1.071,9.96,1111122 
DISL,ioos:station:DISL:PPTA:1,2014-02-04T00:30:00Z,30.2791,-87.5561,1.08,9.91,1111122 
DISL,ioos:station:DISL:PPTA:1,2014-02-04T01:00:00Z,30.2791,-87.5561,1.08,9.72,1111122 
DISL,ioos:station:DISL:PPTA:1,2014-02-04T01:30:00Z,30.2791,-87.5561,1.089,10.22,1111122 
DISL,ioos:station:DISL:PPTA:1,2014-02-04T02:00:00Z,30.2791,-87.5561,1.085,10.27,1111122 
DISL,ioos:station:DISL:PPTA:1,2014-02-04T02:30:00Z,30.2791,-87.5561,1.1,10.18,1111122 
DISL,ioos:station:DISL:PPTA:1,2014-02-04T03:00:00Z,30.2791,-87.5561,1.085,9.76,1111122 
DISL,ioos:station:DISL:PPTA:1,2014-02-04T03:30:00Z,30.2791,-87.5561,1.099,9.85,1111122 
DISL,ioos:station:DISL:PPTA:1,2014-02-04T04:00:00Z,30.2791,-87.5561,1.089,9.81,1111122 
DISL,ioos:station:DISL:PPTA:1,2014-02-04T04:30:00Z,30.2791,-87.5561,1.087,9.59,1111122 
DISL,ioos:station:DISL:PPTA:1,2014-02-04T05:00:00Z,30.2791,-87.5561,1.095,9.48,1111122 
DISL,ioos:station:DISL:PPTA:1,2014-02-04T05:30:00Z,30.2791,-87.5561,1.091,8.62,1111122 
DISL,ioos:station:DISL:PPTA:1,2014-02-04T06:00:00Z,30.2791,-87.5561,1.089,8.39,1111122 
DISL,ioos:station:DISL:PPTA:1,2014-02-04T06:30:00Z,30.2791,-87.5561,1.106,8.51,1111122 
DISL,ioos:station:DISL:PPTA:1,2014-02-04T07:00:00Z,30.2791,-87.5561,1.1,8.33,1111122 
DISL,ioos:station:DISL:PPTA:1,2014-02-04T07:30:00Z,30.2791,-87.5561,1.115,8.17,1111122 
DISL,ioos:station:DISL:PPTA:1,2014-02-04T08:00:00Z,30.2791,-87.5561,1.117,8.16,1111122 
DISL,ioos:station:DISL:PPTA:1,2014-02-04T08:30:00Z,30.2791,-87.5561,1.12,8.22,1111122 
DISL,ioos:station:DISL:PPTA:1,2014-02-04T09:00:00Z,30.2791,-87.5561,1.128,8.16,1111122 
DISL,ioos:station:DISL:PPTA:1,2014-02-04T09:30:00Z,30.2791,-87.5561,1.121,8.1,1111122 
DISL,ioos:station:DISL:PPTA:1,2014-02-04T10:00:00Z,30.2791,-87.5561,1.13,8.01,1111122 
DISL,ioos:station:DISL:PPTA:1,2014-02-04T10:30:00Z,30.2791,-87.5561,1.124,8.05,1111122 
DISL,ioos:station:DISL:PPTA:1,2014-02-04T11:00:00Z,30.2791,-87.5561,1.122,8.03,1111122 
DISL,ioos:station:DISL:PPTA:1,2014-02-04T11:30:00Z,30.2791,-87.5561,1.11,8.05,1111122 
DISL,ioos:station:DISL:PPTA:1,2014-02-04T12:00:00Z,30.2791,-87.5561,1.125,7.92,1111122 
DISL,ioos:station:DISL:PPTA:1,2014-02-04T12:30:00Z,30.2791,-87.5561,1.154,8.07,1111122 
DISL,ioos:station:DISL:PPTA:1,2014-02-04T13:00:00Z,30.2791,-87.5561,1.168,8.05,1111122 
DISL,ioos:station:DISL:PPTA:1,2014-02-04T13:30:00Z,30.2791,-87.5561,1.178,8.21,1111122 
DISL,ioos:station:DISL:PPTA:1,2014-02-04T14:00:00Z,30.2791,-87.5561,1.183,8.25,1111122 
DISL,ioos:station:DISL:PPTA:1,2014-02-04T14:30:00Z,30.2791,-87.5561,1.2,8.22,1111122 
DISL,ioos:station:DISL:PPTA:1,2014-02-04T15:00:00Z,30.2791,-87.5561,1.209,8.28,1111122 
DISL,ioos:station:DISL:PPTA:1,2014-02-04T15:30:00Z,30.2791,-87.5561,1.215,8.36,1111122 
DISL,ioos:station:DISL:PPTA:1,2014-02-04T16:00:00Z,30.2791,-87.5561,1.229,8.45,1111122 
DISL,ioos:station:DISL:PPTA:1,2014-02-04T16:30:00Z,30.2791,-87.5561,1.248,8.58,1111122 
DISL,ioos:station:DISL:PPTA:1,2014-02-04T17:00:00Z,30.2791,-87.5561,1.239,8.63,1111122 
DISL,ioos:station:DISL:PPTA:1,2014-02-04T17:30:00Z,30.2791,-87.5561,1.233,8.7,1111122 
DISL,ioos:station:DISL:PPTA:1,2014-02-04T18:00:00Z,30.2791,-87.5561,1.251,8.63,1111122 
DISL,ioos:station:DISL:PPTA:1,2014-02-04T18:30:00Z,30.2791,-87.5561,1.246,8.63,1111122 
DISL,ioos:station:DISL:PPTA:1,2014-02-04T19:00:00Z,30.2791,-87.5561,1.26,8.69,1111122 
DISL,ioos:station:DISL:PPTA:1,2014-02-04T19:30:00Z,30.2791,-87.5561,1.247,8.59,1111122 
DISL,ioos:station:DISL:PPTA:1,2014-02-04T20:00:00Z,30.2791,-87.5561,1.264,8.8,1111122 
DISL,ioos:station:DISL:PPTA:1,2014-02-04T20:30:00Z,30.2791,-87.5561,1.264,8.76,1111122 
DISL,ioos:station:DISL:PPTA:1,2014-02-04T21:00:00Z,30.2791,-87.5561,1.263,9.06,1111122 
DISL,ioos:station:DISL:PPTA:1,2014-02-04T21:30:00Z,30.2791,-87.5561,1.243,8.71,1111122 
DISL,ioos:station:DISL:PPTA:1,2014-02-04T22:00:00Z,30.2791,-87.5561,1.233,8.7,1111122 
DISL,ioos:station:DISL:PPTA:1,2014-02-04T22:30:00Z,30.2791,-87.5561,1.226,8.7,1111122 
DISL,ioos:station:DISL:PPTA:1,2014-02-04T23:00:00Z,30.2791,-87.5561,1.201,8.79,1111122 
DISL,ioos:station:DISL:PPTA:1,2014-02-04T23:30:00Z,30.2791,-87.5561,1.221,8.97,1111122 
DISL,ioos:station:DISL:PPTA:1,2014-02-05T00:00:00Z,30.2791,-87.5561,1.214,8.96,1111122 
DISL,ioos:station:DISL:PPTA:1,2014-02-05T00:30:00Z,30.2791,-87.5561,1.213,9.0,1111122 
DISL,ioos:station:DISL:PPTA:1,2014-02-05T01:00:00Z,30.2791,-87.5561,1.204,9.12,1111122 
DISL,ioos:station:DISL:PPTA:1,2014-02-05T01:30:00Z,30.2791,-87.5561,1.205,9.4,1111122 
DISL,ioos:station:DISL:PPTA:1,2014-02-05T02:00:00Z,30.2791,-87.5561,1.186,9.33,1111122 
DISL,ioos:station:DISL:PPTA:1,2014-02-05T02:30:00Z,30.2791,-87.5561,1.182,9.56,1111122 
DISL,ioos:station:DISL:PPTA:1,2014-02-05T03:00:00Z,30.2791,-87.5561,1.173,9.38,1111122 
DISL,ioos:station:DISL:PPTA:1,2014-02-05T03:30:00Z,30.2791,-87.5561,1.175,9.05,1111122 
DISL,ioos:station:DISL:PPTA:1,2014-02-05T04:00:00Z,30.2791,-87.5561,1.169,8.94,1111122 
DISL,ioos:station:DISL:PPTA:1,2014-02-05T04:30:00Z,30.2791,-87.5561,1.156,9.18,1111122 
DISL,ioos:station:DISL:PPTA:1,2014-02-05T05:00:00Z,30.2791,-87.5561,1.144,9.36,1111122 
DISL,ioos:station:DISL:PPTA:1,2014-02-05T05:30:00Z,30.2791,-87.5561,1.136,9.29,1111122 
DISL,ioos:station:DISL:PPTA:1,2014-02-05T06:00:00Z,30.2791,-87.5561,1.127,9.2,1111122 
DISL,ioos:station:DISL:PPTA:1,2014-02-05T06:30:00Z,30.2791,-87.5561,1.129,8.88,1111122 
DISL,ioos:station:DISL:PPTA:1,2014-02-05T07:00:00Z,30.2791,-87.5561,1.108,9.36,1111122 
DISL,ioos:station:DISL:PPTA:1,2014-02-05T07:30:00Z,30.2791,-87.5561,1.104,8.94,1111122 
DISL,ioos:station:DISL:PPTA:1,2014-02-05T08:00:00Z,30.2791,-87.5561,1.093,9.41,1111122 
DISL,ioos:station:DISL:PPTA:1,2014-02-05T08:30:00Z,30.2791,-87.5561,1.091,9.16,1111122 
DISL,ioos:station:DISL:PPTA:1,2014-02-05T09:00:00Z,30.2791,-87.5561,1.109,9.33,1111122 
DISL,ioos:station:DISL:PPTA:1,2014-02-05T09:30:00Z,30.2791,-87.5561,1.099,9.26,1111122 
DISL,ioos:station:DISL:PPTA:1,2014-02-05T10:00:00Z,30.2791,-87.5561,1.08,9.15,1111122 
DISL,ioos:station:DISL:PPTA:1,2014-02-05T10:30:00Z,30.2791,-87.5561,1.117,9.66,1111122 
DISL,ioos:station:DISL:PPTA:1,2014-02-05T11:00:00Z,30.2791,-87.5561,1.126,9.6,1111122 
DISL,ioos:station:DISL:PPTA:1,2014-02-05T11:30:00Z,30.2791,-87.5561,1.101,9.19,1111122 
DISL,ioos:station:DISL:PPTA:1,2014-02-05T12:00:00Z,30.2791,-87.5561,1.11,9.31,1111122 
DISL,ioos:station:DISL:PPTA:1,2014-02-05T12:30:00Z,30.2791,-87.5561,1.13,9.53,1111122 
DISL,ioos:station:DISL:PPTA:1,2014-02-05T13:00:00Z,30.2791,-87.5561,1.103,9.43,1111122 
DISL,ioos:station:DISL:PPTA:1,2014-02-05T13:30:00Z,30.2791,-87.5561,1.085,9.23,1111122 
DISL,ioos:station:DISL:PPTA:1,2014-02-05T14:00:00Z,30.2791,-87.5561,1.131,9.49,1111122 
DISL,ioos:station:DISL:PPTA:1,2014-02-05T14:30:00Z,30.2791,-87.5561,1.139,9.55,1111122 
DISL,ioos:station:DISL:PPTA:1,2014-02-05T15:00:00Z,30.2791,-87.5561,1.128,9.51,1111122 
DISL,ioos:station:DISL:PPTA:1,2014-02-05T15:30:00Z,30.2791,-87.5561,1.17,9.45,1111122 
DISL,ioos:station:DISL:PPTA:1,2014-02-05T16:00:00Z,30.2791,-87.5561,1.156,8.71,1111122 
DISL,ioos:station:DISL:PPTA:1,2014-02-05T16:30:00Z,30.2791,-87.5561,1.169,8.6,1111122 
DISL,ioos:station:DISL:PPTA:1,2014-02-05T17:00:00Z,30.2791,-87.5561,1.157,8.69,1111122 
DISL,ioos:station:DISL:PPTA:1,2014-02-05T17:30:00Z,30.2791,-87.5561,1.165,8.68,1111122 
DISL,ioos:station:DISL:PPTA:1,2014-02-05T18:00:00Z,30.2791,-87.5561,1.187,8.79,1111122 
DISL,ioos:station:DISL:PPTA:1,2014-02-05T18:30:00Z,30.2791,-87.5561,1.189,8.7,1111122 
DISL,ioos:station:DISL:PPTA:1,2014-02-05T19:00:00Z,30.2791,-87.5561,1.201,8.75,1111122 
DISL,ioos:station:DISL:PPTA:1,2014-02-05T19:30:00Z,30.2791,-87.5561,1.171,8.71,1111122 
DISL,ioos:station:DISL:PPTA:1,2014-02-05T20:00:00Z,30.2791,-87.5561,1.178,8.73,1111122 
DISL,ioos:station:DISL:PPTA:1,2014-02-05T20:30:00Z,30.2791,-87.5561,1.208,8.76,1111122 
DISL,ioos:station:DISL:PPTA:1,2014-02-05T21:00:00Z,30.2791,-87.5561,1.195,8.73,1111122 
DISL,ioos:station:DISL:PPTA:1,2014-02-05T21:30:00Z,30.2791,-87.5561,1.175,8.68,1111122 
DISL,ioos:station:DISL:PPTA:1,2014-02-05T22:00:00Z,30.2791,-87.5561,1.201,8.71,1111122 
DISL,ioos:station:DISL:PPTA:1,2014-02-05T22:30:00Z,30.2791,-87.5561,1.168,8.61,1111122 
DISL,ioos:station:DISL:PPTA:1,2014-02-05T23:00:00Z,30.2791,-87.5561,1.138,8.84,1111122 
DISL,ioos:station:DISL:PPTA:1,2014-02-05T23:30:00Z,30.2791,-87.5561,1.173,9.15,1111122 
DISL,ioos:station:DISL:PPTA:1,2014-02-06T00:00:00Z,30.2791,-87.5561,1.111,9.19,1111122 
DISL,ioos:station:DISL:PPTA:1,2014-02-06T00:30:00Z,30.2791,-87.5561,1.111,9.07,1111122 
DISL,ioos:station:DISL:PPTA:1,2014-02-06T01:00:00Z,30.2791,-87.5561,1.113,8.85,1111122 
DISL,ioos:station:DISL:PPTA:1,2014-02-06T01:30:00Z,30.2791,-87.5561,1.097,8.89,1111122 
DISL,ioos:station:DISL:PPTA:1,2014-02-06T02:00:00Z,30.2791,-87.5561,1.071,8.87,1111122 
DISL,ioos:station:DISL:PPTA:1,2014-02-06T02:30:00Z,30.2791,-87.5561,1.049,8.92,1111122 
DISL,ioos:station:DISL:PPTA:1,2014-02-06T03:00:00Z,30.2791,-87.5561,1.062,9.13,1111122 
DISL,ioos:station:DISL:PPTA:1,2014-02-06T03:30:00Z,30.2791,-87.5561,1.063,9.2,1111122 
DISL,ioos:station:DISL:PPTA:1,2014-02-06T04:00:00Z,30.2791,-87.5561,1.045,9.14,1111122 
DISL,ioos:station:DISL:PPTA:1,2014-02-06T04:30:00Z,30.2791,-87.5561,1.033,9.23,1111122 
DISL,ioos:station:DISL:PPTA:1,2014-02-06T05:00:00Z,30.2791,-87.5561,1.012,9.28,1111122 
DISL,ioos:station:DISL:PPTA:1,2014-02-06T05:30:00Z,30.2791,-87.5561,0.996,9.22,1111122 
DISL,ioos:station:DISL:PPTA:1,2014-02-06T06:00:00Z,30.2791,-87.5561,0.98,9.27,1111122 
DISL,ioos:station:DISL:PPTA:1,2014-02-06T06:30:00Z,30.2791,-87.5561,0.964,9.38,1111122 
DISL,ioos:station:DISL:PPTA:1,2014-02-06T07:00:00Z,30.2791,-87.5561,0.959,9.4,1111122 
DISL,ioos:station:DISL:PPTA:1,2014-02-06T07:30:00Z,30.2791,-87.5561,0.967,9.36,1111122 
DISL,ioos:station:DISL:PPTA:1,2014-02-06T08:00:00Z,30.2791,-87.5561,0.988,9.32,1111122 
DISL,ioos:station:DISL:PPTA:1,2014-02-06T08:30:00Z,30.2791,-87.5561,0.977,9.26,1111122 
DISL,ioos:station:DISL:PPTA:1,2014-02-06T09:00:00Z,30.2791,-87.5561,0.919,9.4,1111122 
DISL,ioos:station:DISL:PPTA:1,2014-02-06T09:30:00Z,30.2791,-87.5561,0.94,9.51,1111122 
DISL,ioos:station:DISL:PPTA:1,2014-02-06T10:00:00Z,30.2791,-87.5561,0.942,9.49,1111122 
DISL,ioos:station:DISL:PPTA:1,2014-02-06T10:30:00Z,30.2791,-87.5561,0.935,9.5,1111122 
DISL,ioos:station:DISL:PPTA:1,2014-02-06T11:00:00Z,30.2791,-87.5561,0.945,9.36,1111122 
DISL,ioos:station:DISL:PPTA:1,2014-02-06T11:30:00Z,30.2791,-87.5561,0.981,9.57,1111122 
DISL,ioos:station:DISL:PPTA:1,2014-02-06T12:00:00Z,30.2791,-87.5561,0.95,9.58,1111122 
DISL,ioos:station:DISL:PPTA:1,2014-02-06T12:30:00Z,30.2791,-87.5561,0.939,9.56,1111122 
DISL,ioos:station:DISL:PPTA:1,2014-02-06T13:00:00Z,30.2791,-87.5561,0.964,9.59,1111122 
DISL,ioos:station:DISL:PPTA:1,2014-02-06T13:30:00Z,30.2791,-87.5561,0.942,9.48,1111122 
DISL,ioos:station:DISL:PPTA:1,2014-02-06T14:00:00Z,30.2791,-87.5561,0.963,9.71,1111122 
DISL,ioos:station:DISL:PPTA:1,2014-02-06T14:30:00Z,30.2791,-87.5561,0.964,9.66,1111122 
DISL,ioos:station:DISL:PPTA:1,2014-02-06T15:00:00Z,30.2791,-87.5561,1.002,9.72,1111122 